Content
SEND FEEDBACK

Daily
Averages
Monthly
Summary
United States of America

HAWLEY, PENNSYLVANIA


Home > North America > United States > Pennsylvania
Elevation: 1175 feet     Latitude: 41 29N     Longitude: 075 10W

WEATHER
 
SELECT A DAY
Number of Records: 443,773;   Date Range: 1/1/95 - 8/30/14
 
SHARE

PRINT THIS DATA

[ ← Previous Day ]
WEATHER ALMANAC - JANUARY 31, 2013
[ Next Day → ]
[ °C ]   °F
Weather ElementAverageHighLow
Temperature35 °F51.8 °F (4:15 am)21.2 °F (9:35 pm)
Dewpoint24 °F48.2 °F (4:15 am)6.8 °F (10:15 pm)
Humidity65.5 %100 % (5:55 am)44 % (1:35 pm)
Barometer29.35 in29.66 in (11:35 pm)29.01 in (5:15 am)
Wind Speed16.1 mph31.1 mph (2:35 pm)
Wind Gust42.6 mph (2:35 pm)
Weather ElementAverage
Visibility7.9 mi
Wind DirectionWSW (241.9 °)

Weather ElementTotal
Precipitation---
Heating Degree Days28.5 (Base 65)
Averaged from 70 records on January 31, 2013
WEATHER CONDITIONS BREAKOUT
WIND DIRECTION BREAKOUT
WEATHER BY HOUR - JANUARY 31, 2013
[ °C ]   °F
Local TimeTemperatureDewpointHumidityBarometerVisibilityWind DirectionWind SpeedGust SpeedPrecipitationEventsConditions
12:35 AM48.2 °F44.6 °F87 %29.27 in0.5 miCalmOvercast
12:55 AM48.2 °F46.4 °F93 %29.24 in1.5 miSE (130°)9.2 mphOvercast
1:15 AM48.2 °F44.6 °F87 %29.24 in0.5 miSSW (210°)4.6 mphOvercast
1:35 AM48.2 °F46.4 °F93 %29.20 in2.5 miSSE (150°)5.8 mphOvercast
1:55 AM48.2 °F44.6 °F87 %29.17 in0.5 miESE (110°)4.6 mphOvercast
2:15 AM48.2 °F46.4 °F93 %29.15 in0.5 miEast (90°)4.6 mphOvercast
2:35 AM48.2 °F46.4 °F93 %29.13 in0.5 miCalmOvercast
2:55 AM48.2 °F44.6 °F87 %29.08 in0.2 miEast (90°)5.8 mphOvercast
3:15 AM48.2 °F44.6 °F87 %29.08 in0.5 miCalmOvercast
3:35 AM48.2 °F44.6 °F87 %29.07 in0.5 miCalmOvercast
3:55 AM48.2 °F46.4 °F93 %29.09 in1.0 miSouth (190°)9.2 mphOvercast
4:15 AM51.8 °F48.2 °F88 %29.08 in7.0 miSW (230°)11.5 mph20.7 mphOvercast
4:35 AM51.8 °F48.2 °F88 %29.06 in8.0 miSW (230°)8.1 mphOvercast
4:55 AM50.0 °F46.4 °F87 %29.02 in10.0 miSW (220°)6.9 mphOvercast
5:15 AM50.0 °F46.4 °F87 %29.01 in10.0 miSW (230°)4.6 mphMostly Cloudy
5:35 AM48.2 °F46.4 °F93 %29.03 in10.0 miWSW (240°)12.7 mph20.7 mphMostly Cloudy
5:55 AM48.2 °F48.2 °F100 %29.06 in3.0 miWest (280°)21.9 mph40.3 mph
6:15 AM44.6 °F41.0 °F87 %29.06 in10.0 miWest (280°)19.6 mph27.6 mphMostly Cloudy
6:35 AM42.8 °F39.2 °F87 %29.08 in9.0 miWest (270°)29.9 mph41.4 mphOvercast
7:15 AM39.2 °F33.8 °F81 %29.14 in10.0 miWest (270°)17.3 mph25.3 mphOvercast
7:35 AM39.2 °F32.0 °F75 %29.16 in9.0 miWest (280°)19.6 mph29.9 mphOvercast
7:55 AM37.4 °F30.2 °F75 %29.17 in10.0 miWest (280°)25.3 mph36.8 mphOvercast
8:15 AM37.4 °F26.6 °F65 %29.19 in10.0 miWest (270°)19.6 mph34.5 mphOvercast
8:35 AM37.4 °F26.6 °F65 %29.21 in10.0 miWest (280°)19.6 mph31.1 mphOvercast
8:55 AM37.4 °F26.6 °F65 %29.22 in10.0 miWest (280°)20.7 mph36.8 mphScattered Clouds
9:15 AM37.4 °F24.8 °F60 %29.24 in10.0 miWest (270°)21.9 mph34.5 mphMostly Cloudy
9:35 AM35.6 °F24.8 °F65 %29.26 in10.0 miWest (280°)20.7 mph33.4 mphMostly Cloudy
9:55 AM35.6 °F21.2 °F56 %29.27 in10.0 miWest (280°)29.9 mph38.0 mphOvercast
10:15 AM33.8 °F23.0 °F65 %29.31 in10.0 miWNW (290°)17.3 mph32.2 mphOvercast
10:35 AM33.8 °F19.4 °F56 %29.32 in10.0 miWNW (290°)17.3 mph36.8 mphOvercast
10:55 AM33.8 °F19.4 °F56 %29.31 in10.0 miWest (280°)25.3 mph40.3 mphOvercast
11:15 AM33.8 °F17.6 °F52 %29.32 in10.0 miWest (270°)21.9 mph35.7 mphOvercast
11:35 AM35.6 °F19.4 °F52 %29.33 in10.0 miWest (270°)17.3 mph28.8 mphScattered Clouds
11:55 AM35.6 °F17.6 °F48 %29.34 in10.0 miWest (280°)17.3 mph36.8 mphMostly Cloudy
12:15 PM35.6 °F19.4 °F52 %29.35 in10.0 miWest (280°)19.6 mph36.8 mphMostly Cloudy
12:35 PM35.6 °F19.4 °F52 %29.35 in10.0 miWest (270°)21.9 mph31.1 mphMostly Cloudy
12:55 PM35.6 °F17.6 °F48 %29.36 in10.0 miWest (270°)21.9 mph33.4 mphMostly Cloudy
1:15 PM35.6 °F17.6 °F48 %29.36 in10.0 miWest (280°)19.6 mph33.4 mphScattered Clouds
1:35 PM35.6 °F15.8 °F44 %29.36 in10.0 miWest (280°)20.7 mph31.1 mphScattered Clouds
1:55 PM33.8 °F15.8 °F48 %29.38 in10.0 miWest (280°)26.5 mph34.5 mphScattered Clouds
2:15 PM33.8 °F17.6 °F52 %29.39 in10.0 miWest (280°)19.6 mph33.4 mphMostly Cloudy
2:35 PM33.8 °F15.8 °F48 %29.40 in10.0 miWest (280°)31.1 mph42.6 mphScattered Clouds
2:55 PM33.8 °F15.8 °F48 %29.43 in10.0 miWest (280°)17.3 mph34.5 mphMostly Cloudy
3:15 PM32.0 °F14.0 °F48 %29.43 in10.0 miWest (280°)17.3 mph26.5 mphMostly Cloudy
3:35 PM32.0 °F12.2 °F44 %29.44 in10.0 miWest (270°)19.6 mph35.7 mphMostly Cloudy
3:55 PM30.2 °F12.2 °F47 %29.46 in10.0 miWest (270°)23.0 mph32.2 mphOvercast
4:15 PM28.4 °F14.0 °F55 %29.48 in7.0 miWest (270°)20.7 mph33.4 mphMostly Cloudy
4:35 PM28.4 °F12.2 °F51 %29.49 in10.0 miWest (280°)20.7 mph36.8 mphOvercast
4:55 PM28.4 °F10.4 °F47 %29.50 in10.0 miWNW (290°)19.6 mph31.1 mphMostly Cloudy
5:15 PM26.6 °F14.0 °F59 %29.51 in10.0 miWest (270°)17.3 mph26.5 mphClear
5:35 PM26.6 °F12.2 °F55 %29.53 in2.5 miWest (270°)20.7 mph38.0 mphMostly Cloudy
5:55 PM24.8 °F15.8 °F69 %29.55 in8.0 miWest (270°)20.7 mph27.6 mphMostly Cloudy
6:15 PM24.8 °F14.0 °F64 %29.57 in10.0 miWest (270°)19.6 mph31.1 mphPartly Cloudy
6:35 PM24.8 °F12.2 °F59 %29.57 in10.0 miWest (270°)15.0 mph24.2 mphMostly Cloudy
6:55 PM24.8 °F10.4 °F54 %29.58 in10.0 miWest (260°)11.5 mph20.7 mphScattered Clouds
7:15 PM24.8 °F10.4 °F54 %29.59 in10.0 miWest (270°)16.1 mph20.7 mphPartly Cloudy
7:35 PM24.8 °F8.6 °F50 %29.59 in10.0 miWest (270°)11.5 mph21.9 mphPartly Cloudy
7:55 PM24.8 °F8.6 °F50 %29.59 in10.0 miWest (270°)13.8 mph28.8 mphMostly Cloudy
8:15 PM24.8 °F8.6 °F50 %29.60 in10.0 miWest (270°)10.4 mph21.9 mphOvercast
8:35 PM24.8 °F10.4 °F54 %29.61 in10.0 miWSW (250°)11.5 mph16.1 mphOvercast
8:55 PM24.8 °F10.4 °F54 %29.62 in10.0 miWSW (250°)16.1 mph20.7 mphOvercast
9:15 PM23.0 °F17.6 °F80 %29.63 in2.0 miWest (260°)15.0 mph28.8 mphOvercast
9:35 PM21.2 °F14.0 °F74 %29.63 in2.0 miWest (280°)23.0 mph32.2 mphOvercast
9:55 PM21.2 °F14.0 °F74 %29.63 in9.0 miWest (270°)17.3 mph26.5 mphOvercast
10:15 PM23.0 °F6.8 °F50 %29.63 in10.0 miWest (270°)18.4 mph32.2 mphOvercast
10:35 PM23.0 °F6.8 °F50 %29.64 in10.0 miWest (260°)17.3 mph24.2 mphOvercast
10:55 PM21.2 °F6.8 °F54 %29.64 in10.0 miWest (280°)21.9 mph31.1 mphMostly Cloudy
11:15 PM21.2 °F6.8 °F54 %29.65 in10.0 miWest (280°)12.7 mph27.6 mphScattered Clouds
11:35 PM21.2 °F6.8 °F54 %29.66 in10.0 miWNW (290°)16.1 mph24.2 mphMostly Cloudy
11:55 PM21.2 °F6.8 °F54 %29.66 in10.0 miWest (270°)13.8 mph20.7 mphOvercast
Hourly data recorded from KMSV, located miles away from Hawley, Pennsylvania







STORIES FROM OUR PARTNERS